Flag for Germany Weather past 2 weeks in Wismar, Mecklenburg-Western Pomerania, Germany

Now
36 °F

Passing clouds.


Feels Like: 33 °F
Forecast: 35 / 45 °F
Wind: 3 mph from South

Location: Schwerin

Current Time: Mar 1, 2015 at 12:33:49 AM

Latest Report: Mar 1, 2015 at 12:00 AM


Visibility: 15 mi

Pressure: 29.84 "Hg

Humidity: 70%

Dew point: 27 °F

Location of WismarLocation

Historic Weather in Wismar — Graph

°F

Wismar temperature yesterday

Maximum temperature yesterday: 42 °F (at 5:00 PM)
Minimum temperature yesterday: 32 °F (at 7:00 AM)
Average temperature yesterday: 37 °F

Past Weeks' High & Low Weather Summary

 TemperatureHumidityPressure
High49 °F (Feb 26, 3:00 PM)100% (Feb 14, 12:00 AM)30.69 "Hg (Feb 14, 12:00 AM)
Low27 °F (Feb 17, 8:00 AM)45% (Feb 26, 5:00 PM)29.23 "Hg (Feb 21, 1:00 PM)
Average36 °F83%29.97 "Hg
* Reported Feb 13 11:00 PM — Feb 28 11:00 PM, Wismar, Weather by CustomWeather, © 2015

Note: Actual official high and low records may vary slightly from our data, if they occured in-between our weather recording intervals... More about our weather records

Advertising

Wismar weather history for previous 24 hours

 ConditionsComfort  
Time TempWeatherWind HumidityBarometerVisibility
11:00 PM
Sat, Feb 28
36 °FPassing clouds.3 mph71%29.88 "Hg14 mi
9:00 PM37 °FPassing clouds.3 mph69%29.94 "Hg13 mi
8:00 PM37 °FPassing clouds.3 mph69%29.95 "Hg13 mi
7:00 PM38 °FClear.2 mph68%29.97 "Hg12 mi
6:00 PM39 °FPassing clouds.2 mph68%29.98 "Hg14 mi
5:00 PM42 °FPassing clouds.3 mph62%30.00 "Hg13 mi
4:00 PM42 °FPassing clouds.7 mph62%30.02 "Hg22 mi
3:00 PM42 °FPassing clouds.7 mph63%30.03 "Hg16 mi
2:00 PM41 °FPartly sunny.7 mph66%30.06 "Hg16 mi
1:00 PM40 °FOvercast.6 mph65%30.07 "Hg16 mi
12:00 PM40 °FOvercast.6 mph69%30.08 "Hg11 mi
11:00 AM38 °FOvercast.6 mph85%30.09 "Hg8 mi
10:00 AM36 °FFog.5 mph94%30.10 "Hg4 mi
9:00 AM33 °FLow clouds.2 mph99%30.10 "Hg1 mi
8:00 AM32 °FFog.3 mph99%30.08 "Hg1 mi
7:00 AM32 °FOvercast.3 mph96%30.08 "Hg5 mi
6:00 AM32 °FOvercast.3 mph96%30.07 "Hg7 mi
5:00 AM32 °FClear.5 mph96%30.07 "Hg8 mi
3:00 AM33 °FPassing clouds.3 mph95%30.05 "Hg9 mi
2:00 AM35 °FPassing clouds.5 mph92%30.04 "Hg11 mi
1:00 AM36 °FOvercast.5 mph92%30.04 "Hg10 mi
12:00 AM38 °FLow clouds.5 mph95%30.03 "Hg5 mi
Weather by CustomWeather, © 2015

See weather overviewHow to use our weather pages